Theta_e
313 313 313 314 314 314 314 314 314 314 314 314 314 315 315 315 315 315 315 314 315 314 315 315 314 314 314 314 314 314 314 308 305 304 302 306 312 316 323 319 325 326 323 312 305 299 297 300 300 300 300 300 298 300 301 301 297 296 290 285 284 284 286 288 290 291 293 292 295 295 294 294 294 295 300 311 323 324 324 324 327 330 329 331 333 335 335 335
313 313 313 313 314 314 314 314 314 314 314 314 314 314 315 315 315 315 315 316 315 315 315 314 314 314 314 314 314 314 310 306 303 303 303 314 322 322 322 324 327 329 320 305 300 297 297 297 299 300 297 298 298 299 299 297 299 292 287 286 286 286 289 291 293 294 294 294 294 295 295 295 295 296 298 306 309 318 320 322 325 324 328 331 332 332 333 333
313 313 313 313 313 313 313 313 314 314 314 314 314 315 315 314 315 315 315 315 315 315 314 314 314 314 314 314 314 314 308 303 303 302 308 322 321 324 322 323 326 329 309 303 301 297 297 298 298 298 296 295 294 296 297 295 297 291 289 285 286 288 290 292 294 294 294 295 295 294 295 294 296 297 297 300 308 317 317 318 322 323 323 326 329 331 331 332
312 313 313 313 313 313 313 313 313 314 314 314 314 314 315 315 315 315 315 315 315 315 314 314 314 314 314 314 315 310 305 301 300 307 312 327 324 323 325 324 326 328 311 300 301 299 297 298 297 297 295 295 293 296 295 294 294 291 291 287 288 289 291 293 294 296 296 295 295 294 294 294 296 297 298 302 305 303 313 323 322 322 324 326 328 329 331 330
312 312 313 313 313 313 313 313 313 313 314 314 314 314 314 315 315 315 315 315 315 316 314 314 314 313 314 314 313 309 301 294 302 309 313 331 330 325 325 326 328 323 310 301 300 298 298 296 297 297 295 291 292 294 291 293 295 291 290 290 291 291 292 295 295 295 295 295 294 293 293 295 295 297 294 297 295 291 310 323 326 327 327 327 327 329 330 329
312 312 312 312 312 312 313 313 313 313 313 314 314 314 314 315 315 315 315 315 315 315 314 314 313 313 314 314 309 305 300 289 304 308 332 329 330 327 325 329 331 314 302 300 298 297 297 297 296 294 292 293 291 291 290 293 296 290 290 291 291 292 292 294 296 296 294 294 294 295 294 296 293 295 296 300 296 296 309 327 328 329 329 330 330 329 327 328
311 311 312 312 312 312 313 313 313 313 313 314 314 314 314 314 314 314 315 315 315 314 314 314 313 313 313 312 305 304 298 299 307 310 333 334 332 328 327 330 329 304 301 299 297 297 296 296 295 294 293 292 290 291 294 295 295 293 289 289 294 293 293 296 295 295 293 294 294 293 296 295 294 293 301 317 321 326 327 329 329 330 331 331 328 327 327 327
311 311 312 312 312 312 312 312 313 313 313 313 314 314 314 314 314 314 314 314 314 314 314 314 313 313 313 305 303 298 299 299 307 313 337 333 330 328 327 317 308 301 299 298 295 295 296 296 295 296 295 291 291 292 293 293 293 291 290 291 293 294 294 295 294 294 293 292 294 294 293 295 293 294 313 319 324 326 327 328 329 330 330 329 327 325 325 325
311 311 311 311 311 312 312 312 312 313 313 313 313 313 314 314 314 314 313 313 314 314 314 314 313 313 313 304 300 295 294 307 311 320 323 320 321 319 314 310 302 300 298 296 296 296 298 295 297 297 292 293 293 293 292 292 288 291 293 294 293 293 293 294 292 292 293 293 293 293 292 292 292 323 321 324 325 327 328 328 328 328 327 326 325 324 324 324
311 311 311 311 312 312 312 312 312 312 313 313 313 313 313 313 313 313 313 313 313 313 314 314 313 313 306 302 299 290 299 312 320 320 317 315 309 308 306 304 301 299 298 296 297 298 297 297 299 300 298 294 294 292 292 291 288 290 292 292 292 294 294 293 293 293 292 293 292 293 292 292 293 315 313 328 328 328 327 326 327 327 325 325 324 323 324 324
311 311 311 311 311 311 312 312 312 313 313 312 312 312 313 313 313 312 313 313 313 313 313 313 313 310 302 303 295 291 305 310 316 314 315 312 307 305 303 300 301 299 298 296 298 300 302 302 303 302 300 295 296 292 293 292 294 295 295 293 293 293 292 292 291 292 292 294 291 293 291 292 294 307 316 326 329 328 325 325 325 325 325 324 323 323 323 324
311 311 311 311 312 312 312 312 312 312 312 312 312 312 313 313 312 312 312 312 313 313 312 313 314 309 304 300 296 297 306 309 315 311 312 309 305 305 305 301 300 300 298 297 298 300 302 302 303 300 292 298 291 294 293 293 296 294 295 291 290 289 292 291 291 293 293 294 292 291 293 291 292 290 321 328 329 327 324 323 324 324 324 323 323 322 322 323
311 311 311 311 311 311 311 312 312 312 312 312 312 312 313 312 312 311 312 312 313 313 313 312 312 309 303 293 299 309 310 310 312 310 309 307 302 304 304 301 300 299 299 299 299 302 303 303 303 299 299 298 294 292 296 297 295 295 293 290 289 286 287 290 291 293 293 294 292 294 284 283 286 305 324 328 328 326 324 323 323 322 323 322 322 321 321 321
311 311 311 311 311 311 311 311 311 312 312 312 312 312 311 311 311 312 312 312 313 313 313 314 310 306 300 295 303 311 312 311 309 308 306 307 302 302 301 301 301 300 301 301 301 301 303 301 302 301 299 296 293 296 295 292 292 291 290 288 285 283 282 290 292 293 293 293 293 295 286 285 292 318 325 327 328 325 322 322 322 321 321 321 321 321 321 321
311 311 311 310 311 311 312 312 311 312 312 312 311 311 311 311 312 312 313 312 312 312 312 313 310 305 298 301 310 313 326 311 306 305 307 303 300 299 299 300 300 301 301 301 302 303 303 300 300 296 292 297 297 294 289 287 286 286 287 281 282 285 285 289 291 294 291 292 293 294 286 287 306 319 324 327 326 325 322 322 322 321 320 321 320 320 320 321
311 311 310 310 311 311 311 311 311 311 310 310 310 310 311 311 312 312 312 312 312 311 310 305 306 304 297 294 303 320 310 306 307 309 305 304 300 299 299 300 302 302 303 302 304 304 303 303 296 294 294 295 289 284 283 284 283 284 285 280 283 285 284 288 291 292 294 293 293 293 285 288 303 319 323 325 324 324 321 321 321 320 320 320 319 319 319 319
310 311 310 310 310 310 311 311 311 311 310 310 310 311 311 311 312 312 312 312 312 313 308 304 307 305 291 302 310 304 303 305 305 306 303 302 301 300 301 300 300 300 301 301 301 301 298 297 296 295 293 291 286 285 285 277 280 280 284 284 285 286 285 285 289 291 291 292 289 291 289 288 294 315 322 323 323 322 320 320 320 320 320 320 319 318 319 319
310 310 310 310 310 310 310 311 310 310 310 310 310 309 308 310 311 310 309 310 311 310 308 309 305 296 294 301 296 300 305 301 303 304 305 304 302 302 301 300 300 298 300 297 297 296 296 293 292 288 288 287 289 283 280 279 281 282 281 283 286 286 286 287 286 290 292 290 290 289 288 288 293 312 319 321 322 320 319 319 320 320 319 320 319 318 318 319
310 310 310 310 310 310 310 310 310 310 310 310 310 310 311 311 308 307 306 305 300 293 289 293 292 285 288 296 300 301 305 303 303 303 302 303 303 303 303 301 298 296 294 292 291 295 293 293 290 288 285 285 285 286 283 285 286 287 287 286 286 286 286 287 290 293 294 290 287 287 288 286 296 308 316 317 319 318 319 320 319 319 320 319 318 317 318 318
309 310 310 310 310 310 309 310 310 310 310 307 305 304 305 302 300 302 305 305 299 300 302 299 299 296 299 299 300 303 308 306 300 300 301 303 302 300 299 300 297 295 292 290 290 295 295 287 284 283 284 287 288 289 290 290 289 289 289 289 287 287 287 289 290 292 293 290 287 287 288 290 300 309 313 316 314 312 315 316 316 317 318 318 317 317 317 317
309 310 310 310 310 310 310 310 310 311 310 306 303 301 295 297 292 291 300 302 304 305 302 302 302 300 299 302 304 303 300 300 301 299 301 304 299 299 295 295 293 291 289 290 292 298 294 286 284 287 289 290 290 291 292 292 292 290 288 288 285 286 285 290 291 292 296 291 286 287 287 290 300 306 310 309 309 310 313 314 315 316 317 316 316 316 316 316
309 309 309 309 310 310 310 309 310 310 308 304 302 301 303 302 302 306 302 294 300 305 305 304 304 301 305 304 307 306 305 299 300 301 301 303 298 295 292 292 288 288 289 291 290 289 285 284 288 290 292 293 293 293 293 291 291 290 287 285 285 283 286 289 290 293 296 289 287 288 288 288 294 302 304 308 309 311 314 315 315 315 314 315 315 315 315 313
309 309 309 309 310 310 310 310 309 309 305 302 299 302 301 304 308 307 305 298 297 303 304 303 301 302 303 307 307 307 299 297 296 298 299 301 295 296 292 291 289 289 292 291 287 284 284 284 291 293 292 292 291 293 293 290 290 288 286 286 284 283 286 283 287 292 295 293 291 289 288 290 290 292 296 307 309 309 314 314 314 315 314 314 315 315 315 314
309 309 309 309 310 310 310 309 307 303 299 300 301 302 308 308 306 306 302 295 295 299 303 305 304 303 302 302 307 305 300 298 297 296 302 299 295 293 293 290 289 290 287 288 288 286 286 289 292 292 292 292 291 292 292 289 286 286 289 286 285 287 286 286 287 291 292 292 292 288 285 285 287 290 293 298 301 307 310 312 310 312 313 313 314 315 316 315
308 308 309 309 309 309 309 308 298 299 302 301 301 305 307 308 307 305 300 295 294 296 306 304 306 304 305 311 309 304 301 300 299 300 301 300 295 294 292 293 291 286 288 288 289 288 288 293 294 293 292 292 291 289 289 289 284 283 287 289 288 287 289 289 290 287 282 283 289 287 277 281 285 287 290 292 302 304 307 308 309 312 312 313 313 313 313 314
308 308 308 309 309 308 308 298 298 303 301 298 301 306 305 303 306 305 298 289 286 294 301 295 307 299 309 302 305 303 301 296 301 302 302 302 303 297 296 291 292 287 288 288 288 286 289 292 294 292 291 291 290 289 290 290 283 284 287 290 290 290 289 290 289 285 282 282 290 291 282 277 281 288 290 290 299 302 303 306 307 309 310 311 313 313 312 313
308 308 308 309 308 308 294 294 303 301 294 293 300 302 307 306 311 307 298 282 279 295 295 299 299 299 305 301 303 300 288 291 301 301 302 305 300 301 293 289 292 293 292 290 287 285 294 291 292 293 292 290 288 286 289 290 285 284 287 290 290 289 291 290 289 286 282 286 290 288 283 281 281 283 289 290 297 300 302 304 304 308 308 309 312 313 313 313
308 308 308 308 308 306 298 298 300 296 295 297 303 308 309 308 309 303 290 274 276 297 294 295 299 306 303 302 303 297 295 300 295 298 303 303 302 298 295 290 291 290 293 289 282 287 291 291 292 292 291 287 287 287 291 290 287 285 290 291 288 291 290 289 287 285 285 286 283 281 288 284 279 281 288 290 292 293 299 303 303 305 308 308 311 313 313 313
308 308 307 307 307 307 302 301 301 297 300 303 306 308 310 307 302 294 281 275 288 293 304 297 307 302 300 300 299 299 298 299 293 297 301 302 301 296 291 292 291 289 291 291 286 288 293 293 292 292 289 287 288 289 292 292 289 291 290 292 289 291 290 288 284 285 282 280 278 283 285 282 278 279 285 287 287 288 290 297 303 305 307 308 310 311 313 313
308 307 307 307 304 302 302 304 300 303 305 306 306 307 307 301 293 283 278 272 294 288 296 298 296 295 296 293 294 297 296 296 297 299 300 296 299 300 298 296 293 292 291 292 290 290 293 298 299 293 291 291 291 291 292 293 292 294 291 291 287 286 285 285 282 282 279 276 276 282 285 282 278 279 283 286 289 289 288 292 294 301 305 307 309 312 313 312
308 307 306 306 297 299 301 294 298 305 306 306 307 304 298 293 281 276 273 280 295 293 297 296 292 297 293 292 289 294 295 295 295 296 293 297 295 295 296 293 293 287 284 284 288 290 291 291 294 292 298 293 293 291 291 290 290 291 287 283 286 286 280 280 277 279 274 271 276 281 285 284 281 279 285 286 289 291 292 293 295 297 304 306 309 311 312 312
307 306 307 303 302 304 293 290 296 301 301 305 307 297 291 281 284 278 276 297 286 290 291 290 294 294 293 294 292 291 290 294 295 293 290 290 290 289 289 286 288 282 281 281 285 288 288 288 288 291 300 294 290 289 287 286 285 287 286 285 281 277 274 277 275 277 274 275 284 284 285 283 281 280 289 291 291 293 292 295 297 298 304 306 308 310 311 310
306 306 308 306 307 301 302 301 301 301 302 308 302 292 282 275 273 280 284 289 283 294 292 297 294 293 293 292 289 292 294 289 293 292 292 292 290 291 292 291 289 288 281 281 282 283 284 286 289 290 292 295 292 286 283 286 284 286 284 279 278 273 269 267 268 271 276 280 283 284 286 281 280 286 290 291 293 293 295 296 300 302 305 307 309 308 308 308
305 306 301 302 304 304 304 302 303 301 305 304 295 289 281 274 275 295 286 287 288 295 295 295 293 292 293 288 288 292 290 292 292 292 292 289 289 287 289 291 291 291 289 282 282 280 277 282 286 288 287 292 291 288 286 284 283 283 284 286 283 276 275 270 274 271 273 278 280 284 282 279 280 283 293 293 294 301 302 304 304 305 305 306 307 308 308 308
305 304 301 300 302 304 304 305 303 307 303 298 290 281 277 276 278 280 284 288 290 293 291 294 291 289 287 290 291 293 294 289 294 291 290 288 285 285 286 288 291 290 287 283 283 279 283 279 286 291 293 293 291 292 289 285 286 286 285 285 283 281 278 280 276 277 277 278 277 282 279 280 286 291 294 295 301 303 305 305 306 305 306 307 307 306 307 308
302 297 299 298 301 303 304 305 303 302 302 297 288 281 277 281 278 288 286 294 293 290 291 290 289 286 285 289 292 292 296 290 292 291 290 289 289 288 289 291 290 292 287 283 281 281 282 283 289 290 292 290 290 292 292 289 282 284 285 283 283 286 284 276 277 280 274 275 274 273 281 281 284 290 291 292 297 298 301 303 305 305 305 306 306 307 307 308
296 299 296 299 305 307 305 305 304 302 302 294 284 279 282 286 290 292 296 293 293 293 287 283 283 286 283 286 288 290 292 291 290 290 285 290 287 290 291 291 292 292 292 288 283 282 281 279 286 288 289 293 293 292 291 291 288 284 282 282 288 290 287 282 274 273 269 270 271 277 276 279 278 279 289 290 292 296 299 300 301 302 304 304 304 306 308 308
295 296 300 302 304 308 305 305 303 303 298 292 283 287 289 289 296 296 297 295 294 290 287 284 283 290 285 287 285 291 292 288 289 288 286 290 287 297 292 292 295 292 293 291 287 287 284 280 283 287 289 290 291 290 290 291 291 288 284 287 285 277 281 279 278 270 271 270 270 277 277 280 279 283 285 290 290 294 297 298 300 302 303 304 305 306 306 307
295 297 292 300 305 307 305 305 305 302 295 288 280 285 291 293 297 297 298 298 294 291 286 285 284 286 288 285 288 293 293 287 289 286 285 287 285 293 293 294 291 291 291 292 287 284 284 280 281 286 289 290 288 287 280 285 289 288 288 286 286 281 278 278 276 277 277 268 269 274 277 276 285 283 288 288 289 295 296 297 299 301 303 304 304 305 306 306
295 290 288 300 306 308 306 306 302 297 289 283 283 286 292 291 295 296 296 295 291 290 286 286 287 283 286 287 288 286 291 291 288 287 285 289 290 296 291 293 290 291 291 292 288 288 282 282 278 284 288 289 284 284 284 283 282 282 281 278 283 283 284 282 282 280 276 268 265 269 271 279 280 287 290 291 290 296 297 297 297 300 301 303 304 304 305 305
295 290 290 302 309 308 307 302 294 291 287 287 290 290 292 293 295 295 296 297 293 295 291 289 288 285 284 285 286 289 289 290 289 288 288 289 286 283 292 293 293 291 290 289 288 286 281 282 279 280 284 281 285 287 289 287 284 284 282 282 280 281 281 278 274 281 278 276 271 268 269 276 284 293 295 293 291 294 298 300 299 300 302 302 303 303 303 303
292 285 291 303 306 308 301 292 290 290 287 287 288 293 292 302 295 294 294 294 293 291 292 290 289 288 286 286 285 288 288 287 289 289 291 287 291 287 292 293 292 293 288 285 287 290 286 281 279 280 283 285 287 290 290 290 290 288 286 285 284 281 278 274 273 277 278 280 279 278 275 276 285 290 292 293 295 297 299 301 300 301 300 301 302 304 303 303
289 290 301 304 306 307 295 284 287 291 289 289 296 295 296 296 294 294 293 293 292 292 290 289 289 288 289 288 289 287 287 285 290 287 290 293 293 294 294 293 293 294 290 286 288 287 303 277 278 279 281 285 289 289 289 289 287 285 284 284 284 282 285 280 276 278 277 277 279 275 272 276 285 291 293 294 296 296 296 300 301 300 300 301 303 304 304 303
291 291 297 304 305 304 292 284 284 282 287 293 294 293 296 295 293 291 291 291 291 289 290 290 290 290 290 290 289 287 289 282 290 290 289 292 292 297 295 294 294 292 291 289 286 289 283 281 279 275 276 279 282 286 285 287 286 281 282 282 284 285 283 283 281 279 277 279 277 276 271 275 288 292 295 295 296 297 298 299 300 300 300 301 302 302 303 303
290 294 296 297 300 301 289 289 289 282 288 291 291 289 291 292 293 294 293 290 292 290 290 288 292 290 290 290 288 289 291 287 285 290 291 291 293 294 295 295 296 293 299 298 301 293 282 281 278 275 272 271 272 272 274 278 281 281 283 282 283 285 284 281 279 275 275 280 279 273 271 278 284 289 291 295 295 296 297 297 298 299 301 301 302 302 302 303
289 281 288 292 292 295 295 298 294 291 286 286 283 287 290 287 291 293 293 292 292 292 290 290 290 291 289 288 287 287 288 291 287 287 287 287 290 293 293 296 296 295 305 307 300 293 283 283 278 275 275 275 278 281 285 284 281 280 284 283 283 283 282 281 277 272 274 276 274 279 282 282 284 285 287 287 290 294 296 296 297 298 299 300 300 301 302 302
289 285 282 283 291 293 292 294 293 294 287 290 282 288 285 287 289 291 294 289 292 291 290 289 288 286 285 286 284 285 286 286 288 286 286 287 290 292 292 293 293 298 305 301 299 284 281 279 283 282 282 282 283 284 286 285 283 283 283 283 282 281 280 278 275 280 279 277 276 281 281 280 282 284 285 287 288 289 293 294 295 296 297 298 298 299 302 300
283 283 288 289 286 284 286 287 293 292 291 291 286 289 286 286 287 284 290 292 293 292 285 288 287 286 286 286 285 281 283 283 284 280 286 286 286 288 288 291 290 294 297 290 294 289 283 279 284 284 283 283 284 285 286 286 285 284 284 282 281 281 281 280 280 282 280 274 275 281 280 280 281 283 285 286 287 290 290 292 292 294 294 295 295 295 296 296
285 284 287 291 285 290 292 293 292 291 288 290 286 288 286 286 285 288 288 288 289 289 289 279 284 285 285 286 283 280 282 279 280 283 283 284 284 283 283 285 289 289 290 289 290 288 284 280 286 285 284 284 284 285 286 286 285 285 284 283 283 282 281 281 281 280 280 279 280 281 281 280 282 284 285 287 289 290 291 292 293 293 293 293 293 293 294 295
284 283 284 286 287 286 288 290 292 289 286 290 283 286 287 286 286 287 289 287 281 286 290 285 285 285 285 285 284 280 282 284 285 281 286 285 282 284 283 284 284 287 288 288 290 289 285 280 288 284 280 283 284 285 286 286 285 283 284 284 283 283 282 280 280 281 283 281 280 281 280 280 284 285 286 288 288 290 291 291 291 292 293 294 293 293 293 294
287 287 288 283 281 284 288 287 289 287 285 287 284 286 287 286 286 289 287 290 287 286 288 285 287 286 286 285 284 283 286 285 286 286 287 287 282 288 283 284 286 284 285 285 287 287 285 281 283 280 277 280 283 283 284 285 285 284 283 283 283 281 279 280 278 280 277 279 279 280 279 276 283 286 286 287 288 288 288 289 290 291 292 293 293 293 293 294
289 289 290 283 279 285 280 284 287 287 283 286 287 286 285 285 287 289 283 289 290 289 289 288 288 285 284 284 283 284 287 287 288 288 288 289 290 289 288 288 288 285 283 283 285 284 281 281 279 277 276 274 279 281 281 280 281 279 277 282 282 282 281 282 282 283 282 279 275 275 276 281 283 286 284 286 286 287 287 287 288 289 289 291 292 293 294 294
Wind_Speed
13 13 13 13 13 13 13 12 12 12 12 11 11 12 11 11 12 12 11 11 11 11 12 12 11 12 13 12 13 14 10 7 11 6 2 14 9 13 6 11 1 7 5 1 0 1 1 1 2 2 1 1 1 1 1 1 2 2 1 3 3 4 2 4 2 3 2 2 6 8 3 5 5 6 0 5 10 9 9 10 6 16 13 14 15 16 14 13
14 14 14 14 14 13 13 13 13 13 13 13 12 12 12 11 11 11 12 11 10 11 11 11 12 12 12 11 12 12 8 5 10 9 18 8 9 11 11 10 5 8 8 2 4 1 2 1 2 1 2 0 1 1 1 1 1 3 1 2 8 3 6 4 2 2 1 6 5 6 1 4 3 1 2 3 1 3 11 9 11 16 15 14 13 14 13 13
14 15 14 14 13 13 13 13 13 13 13 12 13 12 12 12 11 11 11 11 11 11 11 11 11 11 11 11 11 9 8 6 5 9 13 17 17 11 13 14 9 8 7 4 3 5 3 4 1 2 1 1 1 2 0 2 2 4 5 5 6 5 4 3 3 5 4 5 7 7 7 1 6 1 2 1 4 4 9 8 8 14 17 14 13 12 12 12
14 14 14 14 14 14 13 13 13 13 12 12 12 12 12 12 12 11 11 11 11 11 11 12 11 11 12 11 10 5 3 4 3 4 4 4 16 16 12 13 10 8 4 1 6 4 3 2 2 2 1 1 2 0 1 3 2 2 2 5 2 4 2 5 5 9 9 3 3 5 6 6 5 1 1 4 3 0 2 5 13 17 18 15 14 14 12 10
15 14 15 14 14 14 14 13 13 13 13 13 12 12 12 13 12 11 11 11 11 11 11 11 11 11 11 11 8 2 3 1 0 2 2 3 11 17 13 11 9 6 6 3 5 3 3 2 1 1 1 1 1 0 2 2 2 2 6 3 5 0 1 9 7 7 3 5 2 4 3 4 3 2 2 6 2 4 7 8 10 19 20 19 16 13 11 11
15 14 15 15 14 15 14 14 13 13 13 13 13 12 12 12 12 11 11 11 11 11 11 11 11 11 11 12 4 1 0 2 2 3 1 2 10 15 14 9 9 6 4 3 2 2 4 1 2 1 0 1 1 3 3 2 1 3 4 3 6 5 4 4 4 3 3 1 2 1 3 1 3 5 1 1 2 1 3 10 15 17 17 14 16 15 12 11
15 15 15 15 15 15 15 14 13 13 13 12 12 12 12 11 11 11 11 11 11 10 10 11 10 10 10 7 0 1 1 7 3 9 3 4 9 14 12 9 9 5 3 2 1 2 1 2 3 2 2 0 3 2 6 1 1 4 6 1 6 4 7 9 8 9 4 4 7 3 2 3 2 5 1 3 3 5 11 16 18 17 14 14 14 12 14 14
15 15 15 15 15 15 14 14 13 13 13 12 12 12 12 12 11 11 11 10 10 10 10 9 9 9 7 3 1 1 1 7 12 5 3 8 9 11 12 6 7 5 5 6 5 3 4 4 4 2 0 4 2 5 2 2 0 4 4 3 5 2 7 9 9 8 5 7 6 2 3 8 3 1 2 2 3 8 13 15 16 16 15 12 11 13 12 12
15 15 15 15 15 15 14 14 13 13 13 12 12 12 12 11 11 11 11 10 10 9 9 9 8 6 4 2 1 2 5 8 4 3 7 8 8 10 12 5 5 7 4 3 5 6 5 5 2 3 1 1 1 1 3 1 4 5 9 4 4 5 6 7 5 7 7 3 3 1 6 8 3 9 7 2 6 8 13 13 15 17 15 13 12 12 12 13
15 16 16 15 15 15 14 14 14 14 13 12 12 12 12 11 11 10 10 10 9 9 9 8 8 4 2 1 0 1 4 3 2 6 7 10 9 10 6 6 8 6 4 4 3 5 6 3 5 4 1 3 2 4 0 4 4 3 3 3 6 9 7 6 7 7 5 4 4 4 3 5 3 5 2 4 7 11 12 14 10 15 14 13 12 11 11 14
16 16 16 15 15 15 14 14 14 13 13 12 12 11 12 11 11 10 10 9 9 8 7 7 6 5 1 0 1 5 6 4 1 4 8 9 10 9 7 7 8 6 6 3 7 7 2 3 2 1 1 3 0 3 1 4 1 4 4 4 6 7 6 8 4 7 2 3 7 6 4 1 1 1 9 12 11 12 16 12 12 10 12 12 11 10 9 9
17 16 16 15 15 15 14 14 14 13 13 12 12 12 11 11 11 10 10 9 9 7 6 5 3 1 0 0 4 8 3 3 4 3 7 9 6 9 8 8 9 8 8 5 5 4 6 3 4 1 2 1 1 3 4 3 0 4 1 4 7 7 4 3 5 4 5 3 4 5 0 2 1 3 10 13 14 11 14 14 13 14 12 11 9 7 7 7
17 17 16 15 14 14 14 14 13 13 12 12 12 12 12 11 11 10 9 8 7 7 5 3 2 0 0 3 11 9 4 0 3 5 3 2 2 1 3 6 9 7 8 4 5 7 8 4 3 2 3 1 1 2 1 1 3 1 1 1 6 7 5 6 2 1 4 3 6 4 5 7 5 4 12 13 14 12 12 13 11 9 9 9 8 8 7 5
18 17 16 16 15 15 14 13 13 12 12 13 12 12 11 10 10 10 9 8 7 7 7 6 1 2 0 6 6 3 7 2 3 3 3 3 0 1 3 2 4 4 3 6 5 2 2 3 3 3 0 2 3 4 4 4 3 2 2 3 1 3 4 3 0 1 1 3 5 5 4 8 1 10 12 15 16 19 16 15 13 9 8 7 8 8 8 7
18 17 17 17 16 14 14 13 13 13 12 12 12 12 12 11 10 10 9 8 7 6 6 4 1 2 0 8 7 9 9 2 3 5 6 6 4 2 4 3 5 7 5 4 2 1 4 4 1 1 4 3 2 2 4 2 4 2 2 3 4 1 7 8 5 3 3 1 2 5 3 5 9 11 13 14 14 15 17 14 12 10 8 10 8 8 7 7
18 18 17 17 16 15 14 13 13 12 12 12 12 12 12 12 11 9 8 7 4 3 0 2 3 2 1 7 2 1 4 3 5 11 4 7 6 3 5 6 1 2 3 4 5 3 2 1 3 6 3 1 2 3 4 6 3 4 1 3 3 0 5 8 2 3 10 5 1 7 6 4 3 11 13 12 15 14 12 13 12 11 10 10 8 8 7 6
19 18 17 17 17 16 15 13 12 12 12 12 13 13 13 11 10 6 4 4 3 2 1 1 2 2 1 4 3 3 2 4 2 2 4 4 5 4 5 3 2 3 1 5 3 1 1 3 2 1 5 1 2 5 1 4 4 3 1 1 3 1 2 3 7 4 6 5 3 3 4 2 5 12 12 12 13 13 12 14 10 8 8 9 8 7 8 9
18 18 18 17 17 17 15 14 12 12 12 12 10 11 9 9 5 4 1 0 1 2 3 3 2 2 10 3 3 1 2 5 3 5 8 4 7 2 3 1 0 1 0 2 1 2 1 3 3 4 1 2 1 2 4 4 4 0 2 3 7 1 2 6 3 3 1 2 5 2 5 2 4 11 13 12 9 11 16 14 13 14 9 8 7 6 7 8
19 19 18 17 17 17 16 14 13 12 11 12 13 8 2 2 0 1 0 1 1 0 1 1 2 2 2 1 4 6 3 5 1 6 3 4 3 2 0 1 2 1 1 1 3 1 1 1 4 2 2 1 2 7 8 6 4 3 1 2 3 5 4 3 6 4 2 5 4 5 6 4 5 10 8 7 8 10 12 12 9 8 8 7 7 7 8 8
19 19 18 17 17 16 16 14 12 11 10 7 4 2 0 0 0 0 0 1 4 7 8 6 8 4 10 10 6 3 4 1 4 5 2 4 5 4 0 1 1 2 2 3 1 1 0 1 5 5 7 7 5 8 9 6 5 1 1 1 7 5 7 5 4 6 0 2 1 4 3 5 7 12 12 11 8 5 5 8 7 8 10 10 8 9 8 8
19 19 19 18 17 17 16 14 10 6 7 3 3 0 2 0 2 3 3 8 8 9 9 8 13 11 11 3 0 3 4 4 1 2 5 2 4 6 2 3 1 1 3 3 3 1 2 0 7 9 10 10 4 1 0 0 1 3 2 3 6 3 5 4 3 4 6 2 3 1 7 6 8 7 8 7 6 7 10 8 8 10 10 10 11 10 9 6
21 20 19 19 18 17 16 13 11 7 3 2 2 1 2 3 2 1 1 6 5 14 12 16 6 8 6 9 2 2 1 2 8 6 1 6 3 5 2 3 3 6 1 2 2 2 1 6 10 10 5 0 1 2 3 3 2 1 3 3 1 5 5 9 3 5 3 2 1 1 7 5 4 8 7 11 11 8 11 15 17 15 13 11 10 10 8 5
21 21 19 20 19 18 17 14 9 4 1 0 2 1 3 5 1 2 1 3 10 4 11 10 5 11 12 5 3 7 4 5 5 3 3 5 2 7 4 3 4 2 1 3 6 1 3 6 13 2 5 4 1 3 3 1 1 3 1 0 3 3 2 5 4 6 7 4 1 2 7 1 4 1 6 7 7 4 12 12 10 14 17 16 15 14 13 11
21 21 21 20 20 19 17 15 7 1 2 5 2 6 5 1 2 2 1 3 6 4 6 7 9 3 8 4 4 9 6 3 4 5 2 6 8 4 2 4 2 0 4 4 5 6 8 10 3 4 4 4 4 1 2 1 5 2 3 1 2 2 2 4 4 4 5 2 4 6 7 2 3 5 4 6 2 2 3 4 3 3 3 3 3 5 10 16
21 21 22 21 20 21 20 14 1 3 3 1 6 9 10 6 3 5 1 4 2 5 3 1 5 4 5 3 4 5 3 1 6 3 4 8 4 3 4 2 2 4 3 3 3 2 9 10 1 3 1 1 3 2 5 5 5 3 5 6 5 2 4 4 2 3 6 2 5 2 3 1 4 2 5 3 0 1 3 7 8 8 6 7 10 12 6 4
21 22 22 21 22 21 19 1 1 2 2 5 6 5 3 3 1 3 3 1 5 5 3 2 3 4 4 2 4 4 3 3 7 6 7 8 6 5 1 1 3 4 3 4 5 4 6 2 2 5 5 3 4 5 4 7 6 1 6 7 5 4 1 2 2 3 1 2 3 2 3 2 4 2 2 2 4 4 3 7 5 4 6 7 9 8 8 8
21 22 21 20 19 18 6 1 1 3 3 3 2 6 9 3 1 2 3 4 3 3 2 0 2 1 2 3 5 4 1 6 1 4 4 4 6 1 5 5 1 0 3 2 3 4 0 3 3 1 2 3 2 4 4 8 6 4 2 7 6 4 0 1 1 3 2 1 3 5 4 2 0 2 3 1 4 5 6 6 5 8 8 7 7 8 8 9
22 21 20 20 17 11 3 3 7 1 5 4 5 8 9 4 0 3 3 2 1 1 1 2 2 0 1 0 8 6 5 0 2 3 7 5 5 0 4 5 7 5 2 3 4 5 1 4 0 0 1 2 6 6 5 8 5 4 2 6 3 2 4 4 2 2 1 1 4 5 4 1 2 4 2 0 5 3 8 9 10 9 10 7 7 8 6 7
23 22 21 18 18 13 3 3 1 5 4 3 7 8 7 3 3 5 2 1 3 0 2 2 5 1 0 1 4 5 3 0 1 1 2 2 2 4 4 6 4 4 1 4 7 3 2 5 4 4 4 5 5 5 10 10 2 4 3 5 4 4 5 4 2 4 2 4 2 1 2 1 4 6 6 1 2 3 6 10 12 13 13 11 8 6 7 6
24 23 19 16 11 1 2 3 7 8 4 9 9 9 4 2 2 2 1 3 1 1 1 1 1 2 3 3 3 4 5 2 2 1 1 4 4 0 0 3 4 2 3 2 1 7 4 5 6 4 5 7 6 2 5 9 6 3 4 2 2 7 3 3 5 3 5 1 3 3 3 3 1 4 4 1 1 2 4 5 5 5 4 6 6 8 9 8
24 22 18 13 2 3 2 4 10 8 6 5 7 5 2 8 3 2 1 5 2 3 0 1 3 2 3 4 4 4 4 1 1 3 1 1 1 1 1 3 5 3 3 3 3 5 5 1 0 3 2 2 2 1 2 0 2 2 1 2 2 1 6 3 4 5 3 2 3 4 1 1 4 3 5 7 4 3 6 7 8 10 11 9 7 8 8 7
23 22 18 8 6 1 3 5 0 1 3 6 4 4 4 3 3 3 5 3 1 2 2 2 1 0 1 1 4 2 5 2 2 2 4 5 6 5 3 6 4 1 2 2 7 2 3 4 2 7 3 7 2 2 2 3 4 6 5 7 5 2 2 3 3 1 2 3 1 0 0 2 3 4 5 8 5 5 5 6 5 5 7 6 7 9 8 5
23 21 23 12 9 6 9 12 4 6 7 5 4 4 3 3 3 5 4 3 1 1 2 2 1 3 4 0 3 3 1 4 3 4 5 0 7 8 4 4 4 6 4 3 2 1 5 4 4 5 4 1 5 4 1 1 2 5 4 4 5 1 2 1 1 0 3 4 5 0 1 1 3 5 2 6 7 5 2 2 2 2 4 9 7 5 6 5
24 22 11 4 8 12 6 3 5 3 1 3 2 5 6 2 5 5 4 3 4 2 4 2 8 3 3 4 3 4 2 2 6 3 4 3 5 3 4 2 4 1 1 2 3 5 1 1 4 1 1 2 3 7 9 4 4 5 2 8 6 7 4 2 3 3 5 6 2 3 2 3 3 2 8 4 3 2 4 4 6 9 10 8 8 8 8 6
26 17 8 6 5 10 13 7 3 3 1 3 6 4 5 6 2 2 3 2 2 2 3 5 4 4 3 1 2 2 1 1 3 3 4 5 3 3 5 6 4 4 2 3 2 1 4 4 5 5 2 1 4 1 4 5 3 1 2 6 6 5 7 1 4 2 2 2 1 1 2 2 2 2 3 3 3 7 6 7 9 11 9 11 11 10 9 9
16 5 3 4 2 5 10 9 5 2 5 5 5 2 7 6 2 2 1 3 1 2 6 6 1 1 2 1 1 1 3 2 2 2 1 3 3 6 3 2 5 10 6 6 4 2 3 0 2 7 1 2 1 2 1 3 3 2 2 3 4 2 9 6 2 1 4 4 2 0 1 3 6 3 4 6 6 7 7 6 7 10 10 12 11 10 11 10
6 7 3 2 3 3 7 9 9 6 6 6 5 5 6 3 6 1 3 1 0 2 3 4 4 0 1 1 1 3 2 3 2 1 2 1 1 2 2 2 4 5 8 9 2 3 7 3 3 2 2 1 2 2 4 4 3 5 2 5 2 3 6 6 2 3 4 2 4 2 1 1 2 2 5 4 6 6 6 5 5 3 7 11 5 7 11 11
7 3 5 4 6 5 9 11 11 5 6 6 6 6 2 2 2 3 1 4 2 3 1 1 4 3 2 0 1 1 3 3 3 4 1 2 1 2 3 1 1 4 8 1 5 2 4 0 2 2 2 6 4 4 7 2 1 1 3 3 3 1 1 3 6 0 1 1 1 2 1 1 2 2 3 1 1 2 3 3 4 5 5 8 11 10 6 6
3 1 3 3 3 9 8 13 8 8 6 4 4 1 4 4 2 1 3 2 2 1 1 5 3 1 1 0 2 1 1 1 0 1 0 1 1 2 1 1 2 6 5 1 2 1 2 3 3 2 1 2 4 5 1 5 6 1 2 1 0 4 2 4 4 4 6 2 2 3 3 2 3 2 2 5 3 5 3 3 4 4 3 4 7 8 6 6
3 2 2 5 2 4 10 6 6 6 5 7 5 3 2 1 3 3 3 1 2 1 3 1 3 3 1 5 4 3 3 4 4 2 3 2 1 1 1 3 1 4 5 4 2 0 1 1 3 2 3 2 2 1 2 2 1 4 7 4 2 3 1 5 1 1 4 5 4 3 1 3 4 4 3 5 6 7 9 6 1 3 3 4 6 6 5 5
2 1 1 5 3 5 4 3 5 5 5 1 2 2 1 1 1 1 3 4 2 3 5 3 2 2 3 1 4 2 2 2 3 2 1 0 2 0 2 1 2 3 2 4 6 2 3 1 5 3 4 3 2 3 1 1 2 3 3 1 3 0 4 4 3 1 2 5 4 5 3 6 8 2 2 3 2 4 4 8 7 4 5 5 6 5 3 3
2 3 3 8 7 2 1 5 0 1 2 4 3 3 1 4 1 3 2 2 6 3 3 3 5 6 4 5 4 2 3 3 3 3 1 3 2 3 2 2 5 1 3 1 1 1 2 3 5 1 1 3 1 3 3 2 7 6 5 2 4 2 5 4 5 3 2 1 5 4 6 4 4 3 3 0 1 1 3 5 6 5 4 4 4 7 4 2
3 1 4 9 14 1 3 3 2 1 3 2 2 2 1 1 2 2 2 1 2 4 2 3 3 3 2 1 0 1 3 1 1 5 3 0 1 1 2 2 7 5 4 1 0 1 4 2 3 2 4 4 3 3 2 3 2 5 5 2 3 3 0 4 1 5 6 1 2 1 1 3 3 4 3 2 4 2 1 1 7 4 4 3 4 6 6 3
1 2 5 10 15 1 5 2 2 3 4 5 1 3 2 3 2 2 3 1 0 3 1 1 5 1 1 1 3 2 1 1 3 2 3 2 1 2 3 6 4 1 2 1 2 2 1 1 4 2 2 2 3 6 4 5 6 3 1 3 2 1 3 1 4 1 5 2 4 7 4 2 2 5 5 4 6 5 4 3 1 9 3 3 4 4 4 5
2 1 2 7 14 8 5 1 1 1 3 1 3 3 2 1 4 7 4 2 3 2 1 2 0 5 2 2 3 1 6 2 1 6 1 2 0 3 6 5 7 3 1 5 4 2 3 1 2 2 5 5 3 2 3 1 1 2 1 4 4 6 3 2 1 3 3 0 4 4 2 4 4 7 9 7 4 5 3 3 3 2 7 7 5 5 5 6
3 2 5 5 7 6 4 1 1 2 4 3 1 1 2 2 4 5 5 4 3 2 4 2 2 3 4 4 5 7 7 8 5 1 5 4 2 3 4 6 5 2 4 11 4 5 2 1 3 3 4 5 6 5 2 3 2 4 2 3 3 2 3 6 5 4 2 3 2 2 4 5 3 8 10 9 7 2 4 4 6 5 4 5 5 6 7 7
1 5 3 5 4 7 4 7 10 6 3 2 2 2 5 3 2 3 9 2 6 2 3 10 5 4 3 4 3 4 4 2 7 5 6 3 3 1 5 7 6 11 8 4 5 5 3 4 2 4 6 1 1 3 1 3 5 1 2 2 3 2 1 4 1 1 4 8 1 1 1 4 3 6 7 9 9 4 5 5 4 2 2 1 1 2 4 3
5 2 2 1 2 4 6 8 10 9 12 7 3 1 3 6 9 3 5 4 1 5 3 5 12 7 2 1 2 4 5 3 5 3 5 4 3 7 4 6 6 7 4 2 3 5 3 2 1 4 3 4 1 3 5 8 5 3 3 2 3 1 4 5 0 1 2 2 8 1 3 4 3 4 6 6 4 1 4 5 4 2 2 5 6 7 6 6
4 0 1 3 3 4 1 2 4 6 12 12 0 7 7 9 8 4 1 3 6 7 6 3 5 9 8 5 4 3 2 2 3 3 2 5 2 3 4 5 4 9 6 2 4 1 5 0 1 2 4 4 4 4 6 11 4 8 6 4 2 8 5 5 4 2 5 6 5 9 10 7 2 4 6 5 4 3 4 5 9 12 8 8 9 9 8 7
5 3 5 5 1 2 5 2 3 10 9 13 4 10 5 7 8 6 6 6 2 3 3 7 3 5 9 10 7 5 1 2 1 1 1 1 4 4 1 1 3 6 4 2 0 1 5 2 3 2 4 2 3 4 7 10 8 6 4 5 5 5 8 6 4 5 10 7 4 6 11 7 4 3 4 4 2 3 13 14 9 7 10 9 10 10 9 8
2 1 0 2 6 6 5 6 5 9 7 10 9 9 6 12 6 6 6 4 5 2 2 2 1 2 4 8 8 4 1 1 2 3 4 1 1 1 2 2 1 3 6 3 2 2 4 1 2 3 4 0 2 4 6 9 12 9 4 5 4 4 6 4 4 3 1 7 2 7 7 2 4 7 4 4 11 14 11 10 11 9 9 10 11 10 11 10
1 2 2 1 4 5 4 4 5 4 7 4 6 8 5 9 8 4 3 5 7 6 1 1 0 6 4 8 7 4 4 3 6 7 5 6 5 5 3 2 0 0 3 2 0 2 1 5 3 3 5 2 1 0 4 4 5 4 3 3 2 6 5 5 4 7 3 3 5 7 3 0 2 3 4 9 10 11 12 9 9 10 9 9 9 8 8 8
Wind_Direction
318 316 315 314 313 313 312 311 311 309 310 309 309 309 310 310 313 312 313 312 313 313 305 308 315 314 313 316 319 318 343 333 312 310 253 242 199 221 179 215 116 186 161 119 10 8 5 21 22 332 35 89 251 107 243 125 171 87 167 124 258 199 180 216 168 181 190 259 297 324 339 26 342 349 348 62 51 79 69 58 55 57 66 93 106 110 118 124
317 317 318 314 311 310 308 307 308 309 310 310 310 310 309 310 310 310 310 316 314 307 307 316 314 312 312 312 320 331 349 308 292 271 239 225 197 197 211 215 137 122 127 104 140 156 109 33 2 84 72 189 310 220 127 235 141 143 138 127 230 177 237 174 198 245 316 275 277 290 319 328 298 186 300 92 54 47 64 58 75 87 90 97 105 118 125 133
320 319 314 313 310 308 307 306 305 306 306 307 305 308 308 309 309 311 312 311 308 310 316 314 313 310 308 317 325 354 341 310 280 266 260 234 222 200 209 219 178 156 170 152 196 144 141 157 105 77 31 67 328 213 30 252 152 230 129 234 244 213 239 238 223 247 205 250 293 312 311 64 276 315 333 109 113 61 117 124 85 112 123 123 125 127 133 140
319 316 315 311 309 307 305 304 305 306 306 305 306 304 307 308 309 310 310 310 311 312 315 308 313 315 315 317 332 355 345 286 283 246 255 194 194 199 203 213 182 186 187 34 152 146 151 85 67 89 74 104 287 75 286 259 132 279 145 217 233 215 237 268 220 233 246 195 271 292 305 337 298 336 112 175 107 141 209 192 155 148 139 140 140 143 144 140
319 318 315 311 307 306 304 304 307 304 305 304 304 305 304 307 309 309 309 308 309 316 309 312 315 315 316 317 340 10 328 15 62 234 244 140 171 190 197 192 166 167 178 152 91 84 100 112 94 41 89 249 320 32 250 275 199 96 214 200 216 259 255 258 254 254 249 187 247 296 341 275 305 90 76 145 161 236 196 184 164 145 147 147 152 152 145 145
318 319 315 312 307 304 302 304 304 303 301 302 303 303 303 304 307 307 306 306 308 309 309 312 313 320 322 326 313 150 160 86 283 269 58 190 164 180 190 163 156 136 149 92 128 121 104 40 88 63 25 89 213 150 266 218 125 236 301 243 226 222 232 268 262 245 188 246 220 19 235 343 33 313 109 86 193 251 191 133 152 150 150 142 139 143 144 150
319 318 316 311 307 302 301 303 303 300 301 300 299 300 304 303 304 303 304 306 306 307 312 311 314 322 336 335 311 116 101 270 304 254 41 110 163 168 168 145 132 123 135 128 127 124 123 111 114 199 112 87 281 189 249 243 198 193 245 269 284 215 224 259 272 265 255 226 251 211 351 284 290 297 27 58 340 107 114 128 141 144 139 137 141 148 149 157
322 322 317 312 306 302 299 302 301 300 299 298 298 299 299 301 303 304 303 304 301 300 306 306 312 326 354 3 337 329 59 253 247 249 113 94 115 139 135 119 132 128 140 183 151 149 139 135 164 152 139 152 223 168 266 178 214 201 260 250 260 277 240 256 256 269 250 241 256 358 280 258 203 234 75 43 85 113 119 127 137 140 140 142 142 149 155 156
327 321 317 312 307 303 301 302 300 297 296 297 298 298 296 298 300 302 302 300 299 297 295 303 317 327 32 99 80 341 264 234 231 135 104 94 111 120 128 132 150 144 168 163 173 177 141 224 139 177 234 277 210 257 272 227 309 211 224 234 277 274 277 261 286 267 244 250 184 151 221 252 169 100 51 79 111 124 125 125 133 140 142 145 155 157 161 165
331 326 320 314 309 307 307 300 297 296 296 296 298 295 294 294 295 293 297 298 297 295 293 304 316 25 59 41 282 21 262 203 55 128 114 113 112 125 138 127 148 148 148 201 157 156 186 196 171 205 156 253 202 233 165 132 236 165 237 227 253 266 275 274 233 261 223 207 183 182 227 254 220 127 211 123 133 134 124 132 137 145 148 154 161 169 176 170
336 330 324 317 314 310 303 298 295 295 295 297 294 292 292 290 291 291 292 294 295 294 296 299 310 48 26 314 125 221 261 12 113 123 124 123 122 136 175 154 159 158 167 174 192 188 138 144 186 135 132 230 85 276 186 227 197 288 272 322 287 274 270 254 303 269 138 257 189 179 227 288 278 76 163 159 154 151 135 138 142 150 153 162 166 175 182 181
338 335 331 324 316 311 306 300 297 297 298 296 291 289 287 290 291 295 293 291 291 296 297 287 340 67 201 136 211 225 293 322 132 134 135 138 156 187 168 161 166 171 166 182 218 209 208 168 151 84 209 48 313 320 291 236 99 261 308 323 294 347 323 281 220 239 164 250 144 153 40 325 257 219 166 152 152 157 142 143 150 158 166 165 167 172 186 186
339 338 336 330 321 315 311 308 307 303 300 293 289 287 289 290 289 286 283 281 280 282 281 288 322 99 324 313 229 235 290 32 117 121 126 163 60 122 168 164 177 172 178 169 203 211 202 163 131 155 234 142 226 205 206 96 270 16 66 177 329 349 323 277 221 247 152 241 164 135 288 264 279 167 155 149 153 153 147 150 157 163 169 168 173 181 185 180
340 338 338 335 329 322 315 310 304 300 293 292 292 291 290 289 284 280 279 276 273 262 256 255 99 27 143 244 275 236 236 186 93 102 198 152 48 222 157 186 188 190 196 205 246 230 138 153 152 216 165 162 253 276 8 333 17 277 261 75 248 13 274 302 44 333 305 221 177 113 217 268 240 173 161 160 156 162 165 166 165 162 163 173 182 186 188 191
340 338 338 338 334 326 319 313 306 302 303 302 299 294 285 279 278 282 280 283 270 252 242 259 18 167 7 268 263 265 232 79 181 225 172 155 170 100 191 196 200 205 214 218 232 115 126 120 95 332 263 234 201 327 307 4 355 348 34 294 320 148 279 291 267 213 216 294 197 132 212 242 172 175 177 165 164 162 163 167 165 163 170 180 186 188 187 191
340 339 338 338 337 332 324 317 314 310 304 300 296 288 284 281 281 281 278 270 277 244 39 20 208 212 336 293 251 126 92 139 238 217 203 161 176 192 189 174 200 213 205 262 227 263 295 141 205 208 229 344 54 86 35 19 337 355 75 260 289 5 254 342 315 214 210 193 295 164 213 95 219 192 176 170 165 169 154 163 163 172 174 179 188 190 185 174
340 338 338 337 338 335 329 322 315 311 306 302 296 292 289 283 280 267 275 258 228 186 186 155 126 200 310 233 300 342 233 229 213 134 161 195 186 178 110 113 229 265 266 287 298 61 284 155 290 56 23 120 154 91 351 13 319 316 10 225 216 285 312 307 294 287 236 172 217 253 204 219 176 187 182 172 167 160 158 165 169 170 178 186 187 191 182 186
339 338 336 337 336 337 333 325 319 313 312 309 307 297 284 271 274 323 304 60 197 187 235 244 229 317 277 311 304 264 274 293 164 184 185 184 180 194 128 159 323 135 165 297 4 183 234 207 40 194 358 2 57 64 118 225 201 206 316 360 327 318 227 246 313 268 40 238 192 192 220 87 173 176 182 172 160 159 169 167 179 185 172 181 191 197 192 188
339 337 335 335 335 336 335 330 321 319 318 316 312 309 290 113 49 177 203 152 119 39 353 221 135 147 151 212 275 307 284 221 39 110 221 165 195 172 69 81 93 94 318 81 270 118 342 86 25 37 243 355 214 158 164 214 169 205 180 220 230 289 286 268 247 268 253 274 211 150 206 158 151 182 160 152 158 174 190 188 163 151 172 184 195 199 194 198
338 336 334 333 334 333 336 331 322 320 322 320 354 341 153 12 8 339 267 245 227 217 247 203 205 271 306 283 276 245 275 292 162 232 163 179 113 153 231 105 23 66 110 197 271 189 128 175 216 221 220 217 219 185 196 216 167 132 148 188 258 255 279 269 267 267 305 163 247 200 74 132 159 171 169 163 151 162 184 182 173 167 173 188 197 200 196 196
336 336 333 332 331 333 331 334 320 309 336 337 319 308 330 159 14 296 234 228 221 233 237 243 190 210 230 275 159 31 19 316 246 248 209 114 97 110 249 122 96 263 239 201 168 284 74 222 253 223 219 210 203 214 337 325 145 205 233 224 273 235 266 262 286 333 347 136 334 145 122 145 156 164 159 142 132 180 172 175 183 183 186 190 195 195 195 187
335 334 334 332 330 329 331 330 330 324 71 56 319 208 242 212 223 222 73 305 263 223 227 239 232 256 263 259 265 127 71 279 312 282 281 143 183 150 278 131 143 198 283 109 12 359 46 211 244 227 230 161 142 123 166 189 246 121 179 208 210 274 249 291 304 315 352 90 286 125 134 153 151 163 166 163 187 189 181 182 183 178 186 190 199 198 179 170
333 333 331 331 329 325 327 324 317 357 344 264 208 223 232 230 91 23 52 269 280 206 213 226 233 242 260 257 224 144 156 205 239 285 205 139 108 191 160 129 188 187 96 109 167 176 279 273 251 171 148 165 265 167 142 89 76 166 247 70 252 241 17 305 296 351 345 60 160 152 106 113 320 314 236 216 188 207 194 190 190 181 180 188 193 187 182 182
331 330 330 330 328 326 319 321 315 20 203 207 240 222 244 10 16 354 142 247 289 297 207 211 200 202 227 212 198 158 157 234 150 268 176 137 166 185 116 168 154 156 224 170 167 171 213 240 168 93 123 154 230 269 202 254 284 283 206 159 222 286 235 172 282 330 317 9 82 65 50 357 6 123 232 261 323 93 138 177 184 212 230 247 238 205 190 184
326 329 331 329 330 327 318 315 19 225 183 200 242 248 260 273 263 193 84 323 340 281 272 288 172 226 228 103 113 144 214 275 210 203 172 156 161 96 219 185 119 232 199 151 119 203 273 269 195 260 165 140 175 251 224 152 234 311 236 182 202 187 259 282 350 25 28 338 351 83 52 293 303 282 208 243 88 181 173 183 206 195 192 184 195 200 199 216
327 329 331 329 329 331 311 338 317 330 321 263 240 276 283 334 220 173 95 75 297 270 330 268 149 272 145 208 150 150 95 251 214 205 167 190 164 144 108 202 140 230 195 147 180 199 220 299 145 246 219 169 168 203 236 168 188 120 269 192 185 169 163 303 327 71 15 100 330 28 125 243 326 265 227 274 207 203 179 208 208 193 204 197 204 192 183 191
327 328 328 330 330 338 10 274 347 278 328 298 302 317 318 353 89 86 48 342 351 248 161 250 88 284 219 215 146 109 75 262 302 144 174 129 177 172 132 230 28 185 156 155 44 279 156 307 37 37 177 154 135 241 236 149 124 222 238 126 117 104 206 254 108 114 197 235 285 35 87 134 317 287 266 271 186 204 205 218 206 203 204 207 205 193 183 187
324 325 327 326 326 334 211 314 347 315 230 259 338 329 320 338 62 47 81 359 327 260 159 238 213 345 275 2 144 161 201 128 95 249 186 178 111 320 177 203 189 177 170 100 209 255 149 314 86 74 107 123 191 208 186 149 144 215 190 147 140 183 199 116 93 99 333 79 283 330 343 68 257 261 264 133 124 229 232 213 211 208 206 202 201 200 186 184
323 325 324 323 321 314 234 191 168 241 232 326 315 318 323 22 88 110 123 78 246 144 6 94 289 59 201 74 189 208 258 293 121 265 62 72 186 134 211 215 174 176 281 148 206 290 276 208 229 157 142 212 233 219 165 158 163 282 157 82 77 84 77 99 107 88 345 65 278 284 335 156 290 281 340 337 114 162 245 236 222 205 198 192 183 189 178 175
321 321 321 321 326 70 151 206 232 238 320 322 311 308 348 53 34 39 352 253 324 1 196 233 177 225 121 146 216 212 235 293 158 64 96 148 216 9 41 127 132 134 227 7 206 222 258 307 163 131 203 207 210 198 167 176 195 136 86 86 27 47 34 37 63 92 65 35 256 253 293 136 305 273 228 52 172 198 245 288 253 232 210 171 182 179 176 179
317 317 315 317 278 252 138 286 252 250 252 283 297 326 62 41 120 111 214 231 299 243 349 38 237 24 132 166 217 229 223 195 317 121 71 66 45 46 73 15 45 55 32 354 294 316 337 342 136 245 169 104 152 105 39 25 31 131 72 112 99 330 21 27 343 42 97 269 258 256 190 115 166 296 303 235 283 245 213 222 216 198 189 176 177 174 181 177
314 312 304 298 217 288 202 228 253 65 338 323 10 52 84 226 6 165 216 338 73 284 79 296 302 348 251 339 345 209 184 179 217 122 144 174 169 174 230 179 163 103 308 228 251 5 304 246 253 312 223 156 115 133 273 25 15 79 77 48 107 232 44 240 9 240 163 179 215 226 107 33 228 215 272 299 273 292 225 226 231 198 156 163 167 172 169 156
315 309 304 280 232 215 243 249 314 320 333 345 49 49 74 105 216 252 271 324 235 56 290 220 283 341 295 161 238 247 276 187 251 216 134 66 145 212 210 174 186 145 204 254 216 23 265 283 339 285 314 181 135 145 255 167 350 116 131 127 93 91 53 212 280 277 314 293 264 343 265 241 249 304 294 291 308 291 243 245 161 100 184 165 150 134 124 131
313 311 304 232 197 211 217 196 229 274 3 41 76 44 56 100 240 223 222 241 245 317 333 356 329 316 240 213 245 162 228 243 164 230 144 165 141 204 268 259 142 285 141 133 176 198 117 339 291 127 235 284 140 166 180 172 167 213 159 144 182 143 158 210 192 195 208 180 255 295 67 231 118 244 330 319 311 344 60 68 82 85 90 77 74 68 59 56
314 299 260 273 239 230 221 199 190 196 85 72 62 95 148 229 237 195 227 278 270 309 331 320 324 333 312 267 299 40 135 281 189 129 170 126 216 165 187 230 226 115 128 132 257 81 178 196 257 224 263 102 211 304 118 98 65 176 151 74 98 228 147 163 209 145 182 166 32 181 202 169 106 263 315 333 30 44 54 66 70 81 84 84 73 65 56 52
318 301 206 260 220 255 186 189 182 165 118 84 100 151 208 190 207 186 238 193 343 20 313 341 61 43 265 261 315 133 4 103 318 89 327 187 208 186 221 207 189 183 146 172 196 172 14 275 272 319 299 148 198 161 288 117 182 256 105 172 208 161 108 90 57 64 87 54 248 243 330 339 292 354 0 354 22 32 26 30 83 102 97 90 91 90 82 65
324 329 358 251 251 204 161 156 162 145 103 111 119 232 204 271 201 196 275 31 136 321 50 43 298 109 282 266 234 344 311 50 314 119 253 182 356 343 306 280 174 190 198 142 279 187 146 236 298 44 58 356 2 153 104 65 142 83 161 232 123 95 115 119 152 341 59 145 253 28 239 292 57 222 331 345 28 14 22 32 13 39 100 103 88 94 107 124
318 303 254 273 247 145 146 148 143 120 98 117 190 223 192 202 264 192 318 1 2 38 43 146 271 143 274 145 333 234 309 110 282 28 237 224 176 219 247 236 180 196 217 201 144 258 111 30 292 265 247 283 340 68 27 342 64 148 206 192 95 201 174 334 95 103 104 248 271 5 271 261 156 239 348 275 100 41 42 21 63 62 77 107 115 101 100 99
267 340 354 314 322 140 146 154 145 123 94 126 210 135 259 224 259 307 323 316 218 260 218 239 183 286 186 290 214 68 148 142 203 108 31 292 130 205 123 199 304 17 36 186 96 221 48 156 285 299 148 319 25 59 59 298 333 27 73 44 351 98 154 127 192 166 118 216 81 279 52 181 220 212 213 250 230 152 158 119 121 104 89 111 99 99 107 106
357 18 343 327 51 125 147 156 97 83 92 180 203 211 212 241 265 257 263 266 295 127 239 236 222 252 271 222 159 181 215 160 159 216 126 266 120 258 59 28 232 343 49 77 120 103 81 109 187 282 280 30 33 343 162 155 337 344 26 337 5 20 214 107 50 91 161 161 169 157 7 282 262 213 195 243 228 189 167 167 177 115 99 73 82 96 104 108
280 91 275 349 35 137 160 58 92 156 156 247 146 212 293 243 304 294 263 245 251 252 224 227 226 247 222 296 285 172 161 152 153 119 173 289 130 239 275 154 265 30 353 28 50 354 85 67 184 302 30 24 202 254 168 135 181 136 145 99 185 109 128 136 231 23 79 104 190 121 220 275 270 173 263 274 242 214 192 151 148 149 123 120 115 100 97 100
24 33 336 359 355 291 24 110 48 179 102 156 205 179 230 224 281 264 270 248 186 261 233 231 250 236 230 243 200 184 137 187 167 121 256 178 233 140 242 160 104 111 108 86 146 255 145 144 92 82 147 149 217 12 1 76 102 105 112 59 142 136 98 93 130 240 31 85 115 143 120 272 248 344 333 245 64 265 244 157 142 149 139 127 112 117 112 137
45 218 261 336 357 278 69 37 302 72 185 234 306 288 235 305 241 248 307 277 294 212 242 194 220 176 231 220 255 84 116 29 167 180 179 232 253 206 202 278 112 39 77 340 51 285 92 67 70 322 328 323 337 313 348 59 68 35 14 39 65 23 249 167 176 182 135 168 98 34 77 247 290 7 354 55 54 67 33 116 141 116 115 114 122 117 120 99
272 295 325 343 341 303 77 99 349 323 310 317 297 260 211 214 202 316 229 274 139 326 278 332 338 17 114 67 64 41 349 130 342 116 134 103 344 14 48 33 45 75 73 215 130 257 74 306 123 101 43 350 342 343 2 346 47 81 41 324 340 70 75 135 106 63 91 215 166 119 187 269 288 18 8 41 60 52 76 38 89 132 118 123 124 121 127 136
297 291 40 335 345 37 95 219 117 263 266 273 299 305 309 267 227 226 225 28 15 301 1 356 263 319 355 63 67 22 30 92 146 357 100 87 240 3 360 66 87 73 134 178 140 88 84 184 94 152 169 167 179 232 249 295 295 289 34 346 358 44 10 40 42 7 112 263 97 117 184 252 285 12 16 5 53 75 19 86 73 100 140 150 159 161 159 155
15 37 318 3 353 15 79 214 138 319 327 323 29 290 338 309 333 19 95 91 90 38 68 305 331 41 19 35 39 23 5 12 67 343 32 6 343 15 344 340 6 123 126 84 69 80 117 86 85 154 153 182 201 196 242 115 34 66 303 32 330 27 31 91 104 81 153 185 66 240 163 154 11 355 352 337 340 351 133 138 141 148 171 169 164 165 164 163
82 52 337 345 329 23 18 2 7 10 307 231 75 352 2 341 288 21 11 86 3 11 49 43 0 31 337 53 99 60 6 341 358 69 11 346 293 359 319 63 40 8 346 57 39 80 61 57 12 83 52 143 169 98 190 128 123 126 88 348 341 12 55 79 112 174 158 84 23 271 21 88 345 337 337 339 334 333 1 356 354 4 17 21 176 150 115 101
56 299 67 305 70 346 11 7 1 339 3 16 54 354 18 28 34 37 322 30 32 32 82 354 28 32 0 122 117 77 337 16 22 26 319 11 340 338 24 13 62 333 14 45 17 111 131 95 249 90 51 56 64 101 105 76 61 82 68 29 47 356 67 99 201 25 96 140 186 190 84 84 324 325 325 308 311 333 32 0 351 319 349 8 29 25 21 22
109 254 238 329 70 354 57 239 11 22 23 2 301 27 36 33 36 14 354 314 24 8 40 93 5 7 21 26 91 107 19 78 11 331 55 323 9 325 24 342 343 7 23 60 26 91 90 118 222 121 113 65 60 105 115 101 88 54 34 37 54 80 65 80 72 20 100 104 112 114 92 82 4 328 321 322 326 29 54 38 34 29 10 13 34 27 17 14
11 25 329 352 68 41 352 316 36 41 29 359 26 1 22 17 35 5 21 39 36 350 11 82 58 37 39 45 48 79 7 98 105 65 313 59 328 34 46 135 292 327 25 48 60 335 106 234 143 97 78 39 7 48 90 107 113 87 41 47 51 83 70 35 63 51 84 70 68 87 81 56 5 348 336 335 342 54 48 41 35 33 27 30 39 32 23 16
275 187 302 26 30 346 347 18 28 62 48 354 14 352 15 6 9 3 57 11 69 71 11 110 181 80 37 55 60 86 192 199 227 226 239 190 131 259 74 270 71 331 347 359 21 327 68 161 52 67 91 69 2 69 93 97 90 89 53 16 11 36 70 350 52 311 112 149 145 85 66 42 301 347 323 14 48 48 51 38 34 26 25 36 42 37 36 31
333 304 49 109 71 349 23 321 18 66 44 348 349 351 3 345 359 27 69 35 32 27 21 144 308 81 13 40 37 345 300 213 247 246 230 236 238 262 246 233 6 23 311 24 276 63 84 125 97 83 96 253 269 145 147 95 67 34 331 307 96 73 113 119 65 41 36 123 76 108 178 210 279 311 44 35 50 53 47 37 30 26 26 34 38 39 41 44